Grand Junction, CO

6:37 AM MDT on March 23, 2017 (GMT -0600)
Walker

Weather History for KGJT - October, 2010

Change the Weather History Date:

Friday, October 22, 2010

  Actual Average Record
Temperature  
Mean Temperature 50 °F 51 °F  
Max Temperature 51 °F 64 °F 79 °F (2003)
Min Temperature 48 °F 38 °F 20 °F (1996)
Degree Days  
Heating Degree Days 15 14  
Month to date heating degree days 123 224  
Since 1 July heating degree days 135 298  
Cooling Degree Days 0 0  
Month to date cooling degree days 12 1  
Year to date cooling degree days 1277 1123  
Moisture  
Dew Point 45 °F    
Average Humidity 87    
Maximum Humidity 93    
Minimum Humidity 80    
Precipitation  
Precipitation 0.08 in 0.03 in 0.88 in (2015)
Month to date precipitation 0.74 0.78  
Year to date precipitation 6.92 7.82  
Snow  
Snow 0.00 in 0.00 in 1.20 in (1995)
Month to date snowfall 0.0 0.2  
Since 1 July snowfall 0.0 0.2  
Since 1 September snowfall 0.0 0.2  
Snow Depth 0.00 in    
Sea Level Pressure  
Sea Level Pressure 29.82 in    
Wind  
Wind Speed 4 mph (ESE)    
Max Wind Speed 14 mph    
Max Gust Speed 17 mph    
Visibility 10 miles    
Events Rain    
T = Trace of Precipitation, MM = Missing Value Source: NWS Daily Summary

Daily Weather History Graph

Daily Weather History Graph

Search for Another Location

Airport or City:

Trip Planner

Search our weather history database for the weather conditions in past years. The results will help you decide how hot, cold, wet, or windy it might be!

Date:

Astronomy

Oct. 22, 2010 Rise Set
Actual Time 7:30 AM MDT 6:25 PM MDT
Civil Twilight 7:03 AM MDT 6:52 PM MDT
Nautical Twilight 6:32 AM MDT 7:23 PM MDT
Astronomical Twilight 6:01 AM MDT 7:54 PM MDT
Moon 5:57 PM MDT (10/22) 7:12 AM MDT (10/22)
Length of Visible Light 11h 48m
Length of Day
10h 54m
Full, 100% of the Moon is Illuminated
Oct 22
Full
Oct 22
Full
Oct 30
Last Quarter
Nov 5
New
Nov 13
First Quarter

Hourly Weather History & Observations

Time (MDT) Temp. Dew Point Humidity Pressure Visibility Wind Dir Wind Speed Gust Speed Precip Events Conditions
12:53 AM 48.0 °F 46.0 °F 93% 29.85 in 10.0 mi East 6.9 mph - 0.02 in Rain Light Rain
1:53 AM 48.0 °F 45.0 °F 89% 29.83 in 10.0 mi ESE 11.5 mph - 0.00 in   Overcast
2:53 AM 48.0 °F 43.0 °F 83% 29.82 in 10.0 mi ESE 13.8 mph - N/A   Overcast
3:53 AM 48.0 °F 43.0 °F 83% 29.81 in 10.0 mi ESE 9.2 mph - N/A   Overcast
4:53 AM 48.0 °F 44.1 °F 86% 29.80 in 10.0 mi ESE 10.4 mph - N/A   Overcast
5:53 AM 48.0 °F 44.1 °F 86% 29.82 in 10.0 mi East 8.1 mph - N/A   Overcast
6:53 AM 48.9 °F 45.0 °F 86% 29.82 in 10.0 mi SE 4.6 mph - N/A   Overcast
7:53 AM 48.9 °F 45.0 °F 86% 29.82 in 10.0 mi SE 6.9 mph - N/A   Overcast
8:53 AM 48.9 °F 44.1 °F 83% 29.83 in 10.0 mi ESE 8.1 mph - 0.00 in Rain Light Rain
9:53 AM 48.9 °F 45.0 °F 86% 29.84 in 10.0 mi ESE 8.1 mph - 0.01 in Rain Light Rain
10:53 AM 50.0 °F 46.0 °F 86% 29.83 in 10.0 mi SSE 5.8 mph - 0.01 in   Overcast
11:53 AM 50.0 °F 44.1 °F 80% 29.83 in 10.0 mi SSE 5.8 mph - N/A   Overcast
12:33 PM 50.0 °F 44.6 °F 82% 29.90 in 10.0 mi SSE 4.6 mph - 0.00 in   Overcast
12:53 PM 50.0 °F 45.0 °F 83% 29.82 in 10.0 mi Calm Calm - 0.00 in Rain Light Rain
1:53 PM 51.1 °F 45.0 °F 80% 29.79 in 10.0 mi Calm Calm - 0.00 in Rain Light Rain
2:53 PM 51.1 °F 46.0 °F 83% 29.78 in 10.0 mi East 3.5 mph - 0.00 in   Overcast
3:45 PM 51.8 °F 46.4 °F 82% 29.86 in 10.0 mi Calm Calm - 0.00 in Rain Light Rain
3:53 PM 50.0 °F 46.0 °F 86% 29.78 in 7.0 mi Calm Calm - 0.00 in Rain Light Rain
4:22 PM 50.0 °F 46.4 °F 87% 29.85 in 10.0 mi Calm Calm - 0.00 in Rain Light Rain
4:36 PM 50.0 °F 46.4 °F 87% 29.86 in 10.0 mi Calm Calm - 0.01 in Rain Light Rain
4:53 PM 50.0 °F 46.0 °F 86% 29.78 in 10.0 mi Calm Calm - 0.01 in Rain Light Rain
5:53 PM 50.0 °F 45.0 °F 83% 29.77 in 10.0 mi Calm Calm - 0.00 in   Overcast
6:17 PM 50.0 °F 46.4 °F 87% 29.85 in 10.0 mi Calm Calm - N/A   Overcast
6:53 PM 50.0 °F 46.0 °F 86% 29.77 in 10.0 mi Calm Calm - N/A   Overcast
7:53 PM 50.0 °F 46.9 °F 89% 29.78 in 10.0 mi SSW 3.5 mph - 0.01 in Rain Light Rain
8:14 PM 48.2 °F 46.4 °F 93% 29.86 in 5.0 mi ESE 8.1 mph - 0.02 in Rain Rain
8:53 PM 48.9 °F 46.9 °F 93% 29.79 in 10.0 mi Calm Calm - 0.04 in   Overcast
9:53 PM 48.9 °F 46.9 °F 93% 29.79 in 10.0 mi Calm Calm - N/A   Overcast
10:53 PM 50.0 °F 46.9 °F 89% 29.79 in 10.0 mi Calm Calm - N/A   Overcast
11:30 PM 48.2 °F 46.4 °F 93% 29.89 in 10.0 mi WNW 3.5 mph - N/A   Overcast
11:43 PM 48.2 °F 46.4 °F 93% 29.88 in 10.0 mi North 4.6 mph - N/A   Overcast
11:53 PM 48.9 °F 45.0 °F 86% 29.80 in 10.0 mi North 4.6 mph - N/A   Overcast